User: anonymous   Login
Location: Unspecified
(0.0000°N, 0.0000°E)
Time: 14:03:07
(UTC+00:00)
Language:

XIAOXIANG 2 - Orbit

View from above orbital plane
View from above orbital plane
View from above satellite
View from above satellite

Ground track
Ground track

The orbit data is extracted from the following two-line orbital elements,

1 43155U 18008A   24064.20072932  .00057189  00000-0  13007-2 0  9999
2 43155  97.2568 117.5387 0009752  99.7932 260.4418 15.42747160338636
Epoch (UTC): 04 March 2024 04:49:03
Eccentricity: 0.0009752
inclination: 97.2568°
perigee height: 431 km
apogee height: 444 km
right ascension of ascending node: 117.5387°
argument of perigee: 99.7932°
revolutions per day: 15.42747160
mean anomaly at epoch: 260.4418°
orbit number at epoch: 33863

The dashed part of the orbit path shows where the satellite is in the earth's shadow,  

DLR